This demonstration page uses our WeatherBlox Daily Observations layout. Learn more.

Left ArrowRight Arrow

41.12389, -100.76542

Hourly Observations for July 13, 2022

Temp ( °F °C ) Dew Point ( °F °C ) Humidity (%) Winds ( mph kmh ) Pressure ( in mb ) Visibility ( mi km ) Precip ( " mm )
12:53 am 00:53 Clear 69 20.6 58 14.4 68 68 ESE 9 15 29.98 1015 10 16 0.00 0.00
1:53 am 01:53 Clear 68 20 59 15 73 73 E 9 15 29.97 1015 10 16 0.00 0.00
2:53 am 02:53 Clear 66 18.9 58 14.4 75 75 E 8 13 29.97 1015 10 16 0.00 0.00
3:53 am 03:53 Clear 64 17.8 58 14.4 81 81 E 10 17 29.98 1015 10 16 0.00 0.00
4:53 am 04:53 Clear 61 16.1 57 13.9 87 87 E 7 11 29.98 1015 10 16 0.00 0.00
5:53 am 05:53 Clear 61 16.1 57 13.9 87 87 ESE 7 11 29.99 1016 10 16 0.00 0.00
6:53 am 06:53 Sunny 61 16.1 57 13.9 87 87 E 3 6 30.01 1016 10 16 0.00 0.00
7:53 am 07:53 Sunny 68 20 59 15 73 73 SE 3 6 30.01 1016 10 16 0.00 0.00
8:53 am 08:53 Sunny 73 22.8 59 15 62 62 ESE 6 9 30.00 1016 10 16 0.00 0.00
9:53 am 09:53 Sunny 82 27.8 57 13.9 42 42 SSW 12 19 29.99 1016 10 16 0.00 0.00
10:53 am 10:53 Sunny 86 30 58 14.4 39 39 S 8 13 29.98 1015 10 16 0.00 0.00
11:53 am 11:53 Sunny 88 31.1 59 15 38 38 SSE 7 11 29.96 1015 10 16 0.00 0.00
12:53 pm 12:53 Sunny 92 33.3 59 15 33 33 SW 6 9 29.96 1014 10 16 0.00 0.00
1:53 pm 13:53 Sunny 94 34.4 61 16.1 33 33 S 9 15 29.94 1014 10 16 0.00 0.00
2:53 pm 14:53 Sunny 96 35.6 61 16.1 31 31 S 9 15 29.92 1013 10 16 0.00 0.00
3:53 pm 15:53 Sunny 99 37.2 59 15 27 27 S 10 17 29.90 1012 10 16 0.00 0.00
4:53 pm 16:53 Sunny 100 37.8 58 14.4 25 25 undefined N/A 29.88 1012 10 16 0.00 0.00
5:53 pm 17:53 Sunny 99 37.2 60 15.6 28 28 E 13 20 29.86 1011 10 16 0.00 0.00
6:53 pm 18:53 Sunny 96 35.6 61 16.1 31 31 E 14 22 29.86 1011 10 16 0.00 0.00
7:53 pm 19:53 Sunny 89 31.7 68 20 50 50 ESE 16 26 29.86 1011 10 16 0.00 0.00
8:53 pm 20:53 Sunny 83 28.3 66 18.9 57 57 ESE 13 20 29.86 1011 10 16 0.00 0.00
9:53 pm 21:53 Clear 78 25.6 65 18.3 64 64 ESE 9 15 29.87 1012 10 16 0.00 0.00
10:53 pm 22:53 Clear 74 23.3 64 17.8 71 71 ESE 8 13 29.89 1012 10 16 0.00 0.00
11:53 pm 23:53 Clear 71 21.7 64 17.8 79 79 ESE 8 13 29.89 1012 10 16 0.00 0.00

Powered by AerisWeather